Location: Dana
(41.8364°N, 106.7042°W)
Time: 02:18:45
(UTC+00:00)

Transit 4A - Pass Details

Date: 11 May 2026
Orbit: 860 x 980 km, 66.8° (Epoch: 6 June)

Event Time Altitude Azimuth Distance (km) Brightness Sun altitude
Rises 23:52:32 0° 334° (NNW) 3,682 11.4 24.8°
Reaches altitude 10° 23:55:23 10° 344° (NNW) 2,737 10.7 24.3°
Maximum altitude 00:01:10 34° 48° (NE) 1,550 9.0 23.2°
Drops below altitude 10° 00:06:54 10° 113° (ESE) 2,715 9.9 22.1°
Sets 00:09:42 0° 122° (ESE) 3,648 10.5 21.6°
